Weather History for Tekamah, NE

Change the Weather History Date:

Wednesday, March 19, 2014

  Actual Average Record
Temperature  
Mean Temperature 40 °F -  
Max Temperature 53 °F 49 °F 80 °F (1976)
Min Temperature 28 °F 28 °F 3 °F (1965)
Degree Days  
Heating Degree Days 25    
Moisture  
Dew Point 26 °F    
Average Humidity 68    
Maximum Humidity 88    
Minimum Humidity 28    
Precipitation  
Precipitation 0.00 in - - ()
Sea Level Pressure  
Sea Level Pressure 29.98 in    
Wind  
Wind Speed 18 mph (NW)    
Max Wind Speed 26 mph    
Max Gust Speed 34 mph    
Visibility 8 miles    
Events Rain , Snow    
Averages and records for this station are not official NWS values.
T = Trace of Precipitation, MM = Missing Value Source: NWS Daily Summary

Daily Weather History Graph

Daily Weather History Graph

Search for Another Location

Airport:

Trip Planner

Search our weather history database for the weather conditions in past years. The results will help you decide how hot, cold, wet, or windy it might be!

Date:

Astronomy

Mar. 19, 2014 Rise Set
Actual Time 7:29 AM CDT 7:35 PM CDT
Civil Twilight 7:01 AM CDT 8:03 PM CDT
Nautical Twilight 6:29 AM CDT 8:36 PM CDT
Astronomical Twilight 5:56 AM CDT 9:09 PM CDT
Moon 10:58 PM CDT (3/19) 8:53 AM CDT (3/19)
Length of Visible Light 13h 01m
Length of Day
12h 06m
Waning Gibbous, 91% of the Moon is Illuminated
Mar 19
Waning Gibbous
Mar 23
Last Quarter
Mar 30
New
Apr 7
First Quarter
Apr 15
Full

Hourly Weather History & Observations

Time (CDT) Temp. Windchill Dew Point Humidity Pressure Visibility Wind Dir Wind Speed Gust Speed Precip Events Conditions
12:02 AM 32.0 °F 20.5 °F 28.9 °F 88% 29.83 in 2.5 mi NNW 18.4 mph - 0.00 in Snow Light Snow
12:13 AM 32.0 °F 19.8 °F 28.0 °F 85% 29.83 in 3.0 mi NNW 20.7 mph - 0.00 in Snow Light Snow
12:39 AM 32.0 °F 19.5 °F 28.9 °F 88% 29.83 in 3.0 mi NNW 21.9 mph - 0.00 in Snow Light Snow
12:47 AM 32.0 °F 19.5 °F 28.9 °F 88% 29.83 in 3.0 mi NNW 21.9 mph - 0.00 in Snow Light Snow
12:54 AM 32.0 °F 19.2 °F 28.9 °F 88% 29.84 in 2.5 mi NNW 23.0 mph 29.9 mph 0.00 in Snow Light Snow
1:17 AM 33.1 °F 20.3 °F 28.0 °F 82% 29.84 in 3.0 mi NNW 24.2 mph - 0.00 in Snow Light Snow
1:46 AM 34.0 °F 21.0 °F 28.0 °F 79% 29.85 in 8.0 mi NNW 26.5 mph 32.2 mph 0.00 in Rain Light Rain
1:54 AM 34.0 °F 21.8 °F 28.0 °F 79% 29.86 in 7.0 mi NNW 23.0 mph - 0.00 in   Overcast
2:32 AM 34.0 °F 23.4 °F 30.0 °F 85% 29.87 in 6.0 mi NNW 17.3 mph - N/A   Overcast
2:54 AM 34.0 °F 21.5 °F 30.0 °F 85% 29.88 in 6.0 mi NNW 24.2 mph 31.1 mph N/A   Overcast
3:29 AM 34.0 °F 21.3 °F 28.9 °F 82% 29.89 in 8.0 mi NNW 25.3 mph 34.5 mph N/A   Overcast
3:54 AM 34.0 °F 21.5 °F 28.0 °F 79% 29.91 in 10.0 mi NNW 24.2 mph - N/A   Overcast
4:54 AM 33.1 °F 21.9 °F 28.0 °F 82% 29.93 in 10.0 mi NW 18.4 mph 27.6 mph N/A   Overcast
5:54 AM 33.1 °F 21.9 °F 27.0 °F 78% 29.98 in 10.0 mi NW 18.4 mph - N/A   Overcast
6:54 AM 32.0 °F 20.5 °F 26.1 °F 79% 30.00 in 10.0 mi NW 18.4 mph - N/A   Overcast
7:45 AM 30.0 °F 20.5 °F 24.1 °F 79% 30.01 in 10.0 mi NW 11.5 mph - N/A   Scattered Clouds
7:54 AM 28.9 °F 19.2 °F 24.1 °F 82% 30.04 in 10.0 mi NW 11.5 mph - N/A   Clear
8:54 AM 30.9 °F 20.7 °F 25.0 °F 79% 30.06 in 10.0 mi NW 13.8 mph - N/A   Clear
9:54 AM 34.0 °F 25.0 °F 26.1 °F 73% 30.06 in 10.0 mi NW 12.7 mph - N/A   Clear
10:54 AM 37.9 °F 30.0 °F 28.9 °F 70% 30.09 in 10.0 mi WNW 12.7 mph - N/A   Clear
11:54 AM 41.0 °F 33.1 °F 30.0 °F 65% 30.09 in 10.0 mi WNW 15.0 mph - N/A   Scattered Clouds
12:30 PM 43.0 °F 37.2 °F 30.9 °F 62% 30.08 in 10.0 mi NW 10.4 mph 20.7 mph N/A   Mostly Cloudy
12:51 PM 44.6 °F 39.2 °F 28.4 °F 53% 30.08 in 10.0 mi WNW 10.4 mph - N/A   Overcast
12:54 PM 44.1 °F 38.6 °F 30.0 °F 58% 30.09 in 10.0 mi WNW 10.4 mph - N/A   Overcast
1:54 PM 48.0 °F - 27.0 °F 44% 30.07 in 10.0 mi West 17.3 mph 24.2 mph N/A   Mostly Cloudy
2:54 PM 48.9 °F - 21.0 °F 33% 30.05 in 10.0 mi WNW 15.0 mph 26.5 mph N/A   Clear
3:54 PM 52.0 °F - 19.9 °F 28% 30.04 in 10.0 mi NW 18.4 mph - N/A   Partly Cloudy
4:54 PM 50.0 °F - 19.9 °F 31% 30.04 in 10.0 mi WNW 10.4 mph - N/A   Scattered Clouds
5:54 PM 52.0 °F - 21.0 °F 30% 30.03 in 10.0 mi NW 10.4 mph - N/A   Partly Cloudy
6:54 PM 50.0 °F - 21.9 °F 33% 30.04 in 10.0 mi WNW 5.8 mph - N/A   Overcast
7:54 PM 48.0 °F - 25.0 °F 41% 30.04 in 10.0 mi West 6.9 mph - N/A   Overcast
8:54 PM 42.1 °F 37.7 °F 26.1 °F 53% 30.05 in 10.0 mi WSW 6.9 mph - N/A   Scattered Clouds
9:54 PM 33.1 °F 26.1 °F 23.0 °F 66% 30.05 in 10.0 mi WSW 8.1 mph - N/A   Clear
10:54 PM 34.0 °F 28.0 °F 24.1 °F 67% 30.06 in 10.0 mi WSW 6.9 mph - N/A   Clear
11:54 PM 32.0 °F 28.7 °F 23.0 °F 69% 30.06 in 10.0 mi West 3.5 mph - N/A   Clear